Quantico, VA

2:53 PM EDT on July 28, 2016 (GMT -0400)
Quantico Marine Corps Air Facility

Weather History for KNYG - December, 2012

Change the Weather History Date:

Sunday, December 9, 2012

  Actual Average Record
Temperature  
Mean Temperature 50 °F -  
Max Temperature 53 °F 47 °F 54 °F (1999)
Min Temperature 46 °F 31 °F 17 °F (2006)
Degree Days  
Heating Degree Days 16    
Moisture  
Dew Point 47 °F    
Average Humidity 90    
Maximum Humidity 94    
Minimum Humidity 82    
Precipitation  
Precipitation 0.11 in - - ()
Sea Level Pressure  
Sea Level Pressure 30.11 in    
Wind  
Wind Speed 3 mph (NE)    
Max Wind Speed 12 mph    
Max Gust Speed -    
Visibility 3 miles    
Events Fog , Rain    
Averages and records for this station are not official NWS values.
T = Trace of Precipitation, MM = Missing Value Source: NWS Daily Summary

Daily Weather History Graph

Daily Weather History Graph

Search for Another Location

Airport or City:

Trip Planner

Search our weather history database for the weather conditions in past years. The results will help you decide how hot, cold, wet, or windy it might be!

Date:

Astronomy

Dec. 09, 2012 Rise Set
Actual Time 7:15 AM EST 4:48 PM EST
Civil Twilight 6:45 AM EST 5:17 PM EST
Nautical Twilight 6:12 AM EST 5:50 PM EST
Astronomical Twilight 5:40 AM EST 6:23 PM EST
Moon 2:48 AM EST (12/9) 1:51 PM EST (12/9)
Length of Visible Light 10h 32m
Length of Day
9h 32m
Waning Crescent, 19% of the Moon is Illuminated
Dec 9
Waning Crescent
Dec 13
New
Dec 20
First Quarter
Dec 28
Full
Jan 4
Last Quarter

Hourly Weather History & Observations

Time (EST) Temp. Dew Point Humidity Pressure Visibility Wind Dir Wind Speed Gust Speed Precip Events Conditions
12:23 AM 48.2 °F 46.4 °F 93% 30.03 in 6.0 mi NE 4.6 mph - N/A   Overcast
12:56 AM 48.9 °F 46.9 °F 93% 30.04 in 6.0 mi Calm Calm - N/A   Overcast
1:56 AM 48.0 °F 46.0 °F 93% 30.05 in 3.0 mi Calm Calm - N/A   Overcast
2:04 AM 48.2 °F 44.6 °F 87% 30.05 in 4.0 mi Calm Calm - N/A   Overcast
2:56 AM 46.9 °F 44.1 °F 90% 30.07 in 6.0 mi Calm Calm - N/A   Mostly Cloudy
3:08 AM 46.4 °F 44.6 °F 93% 30.07 in 1.8 mi Calm Calm - N/A   Mostly Cloudy
3:21 AM 48.2 °F 44.6 °F 87% 30.07 in 2.0 mi Calm Calm - N/A   Overcast
3:33 AM 48.2 °F 44.6 °F 87% 30.07 in 3.0 mi Calm Calm - N/A   Overcast
3:47 AM 48.2 °F 44.6 °F 87% 30.07 in 5.0 mi Calm Calm - N/A   Overcast
3:56 AM 46.9 °F 45.0 °F 93% 30.08 in 5.0 mi Calm Calm - N/A   Overcast
4:56 AM 48.0 °F 45.0 °F 89% 30.09 in 7.0 mi Calm Calm - N/A   Overcast
5:06 AM 48.2 °F 44.6 °F 87% 30.08 in 1.8 mi ENE 3.5 mph - N/A   Overcast
5:11 AM 48.2 °F 44.6 °F 87% 30.09 in 0.8 mi Calm Calm - N/A   Mist
5:56 AM 50.0 °F 46.9 °F 89% 30.11 in 0.2 mi NE 5.8 mph - N/A Fog Fog
6:56 AM 50.0 °F 46.9 °F 89% 30.15 in 0.5 mi Calm Calm - N/A Fog Fog
7:01 AM 50.0 °F 48.2 °F 94% 30.15 in 1.8 mi Calm Calm - N/A   Overcast
7:08 AM 50.0 °F 48.2 °F 94% 30.16 in 2.5 mi Calm Calm - 0.00 in Rain Light Rain
7:17 AM 50.0 °F 48.2 °F 94% 30.16 in 1.2 mi Calm Calm - 0.00 in   Overcast
7:27 AM 50.0 °F 48.2 °F 94% 30.16 in 0.5 mi Calm Calm - 0.00 in Fog Fog
7:56 AM 48.0 °F 46.0 °F 93% 30.16 in 0.2 mi East 5.8 mph - 0.00 in Fog Fog
8:52 AM 50.0 °F 48.2 °F 94% 30.16 in 1.5 mi NE 10.4 mph - N/A   Overcast
8:56 AM 51.1 °F 48.9 °F 92% 30.17 in 2.5 mi NE 9.2 mph - N/A   Overcast
9:03 AM 51.8 °F 48.2 °F 88% 30.17 in 5.0 mi NE 11.5 mph - N/A   Overcast
9:43 AM 51.8 °F 48.2 °F 88% 30.17 in 6.0 mi NE 10.4 mph - N/A   Overcast
9:56 AM 51.1 °F 48.0 °F 89% 30.17 in 6.0 mi NE 11.5 mph - N/A   Overcast
10:56 AM 53.1 °F 48.0 °F 83% 30.17 in 7.0 mi ENE 8.1 mph - 0.01 in Rain Light Rain
11:45 AM 51.8 °F 46.4 °F 82% 30.15 in 7.0 mi ENE 6.9 mph - 0.00 in   Overcast
11:56 AM 52.0 °F 46.9 °F 83% 30.16 in 7.0 mi ENE 9.2 mph - 0.00 in   Overcast
12:45 PM 50.0 °F 46.4 °F 87% 30.14 in 2.0 mi ENE 6.9 mph - N/A   Overcast
12:56 PM 51.1 °F 46.9 °F 86% 30.14 in 1.8 mi ENE 6.9 mph - N/A   Overcast
1:08 PM 50.0 °F 46.4 °F 87% 30.13 in 1.5 mi ENE 6.9 mph - N/A   Overcast
1:18 PM 50.0 °F 46.4 °F 87% 30.13 in 1.2 mi ENE 5.8 mph - N/A   Overcast
1:56 PM 50.0 °F 48.0 °F 93% 30.13 in 1.2 mi NE 6.9 mph - N/A   Overcast
2:56 PM 50.0 °F 46.9 °F 89% 30.13 in 1.5 mi NE 6.9 mph - N/A   Overcast
3:56 PM 50.0 °F 46.9 °F 89% 30.13 in 1.8 mi NE 6.9 mph - N/A   Overcast
4:49 PM 48.2 °F 46.4 °F 93% 30.12 in 2.5 mi NE 5.8 mph - N/A   Overcast
4:56 PM 48.9 °F 46.9 °F 93% 30.12 in 2.0 mi ENE 5.8 mph - N/A   Overcast
5:29 PM 48.2 °F 46.4 °F 93% 30.11 in 1.5 mi NE 5.8 mph - N/A   Overcast
5:47 PM 48.2 °F 46.4 °F 93% 30.11 in 1.2 mi NE 5.8 mph - N/A   Overcast
5:56 PM 48.9 °F 46.9 °F 93% 30.12 in 1.2 mi NNE 5.8 mph - N/A   Overcast
6:34 PM 48.2 °F 46.4 °F 93% 30.10 in 1.8 mi ENE 4.6 mph - 0.04 in Rain Light Rain
6:56 PM 48.9 °F 46.9 °F 93% 30.11 in 2.5 mi NE 4.6 mph - 0.07 in Rain Light Rain
7:46 PM 48.2 °F 46.4 °F 93% 30.09 in 3.0 mi NE 3.5 mph - 0.01 in Rain Light Rain
7:56 PM 50.0 °F 46.9 °F 89% 30.09 in 4.0 mi NE 3.5 mph - 0.01 in   Overcast
8:39 PM 48.2 °F 46.4 °F 93% 30.07 in 2.5 mi Calm Calm - N/A   Overcast
8:56 PM 48.9 °F 46.9 °F 93% 30.07 in 1.8 mi Calm Calm - N/A   Overcast
9:06 PM 50.0 °F 46.4 °F 87% 30.06 in 2.0 mi Calm Calm - N/A   Overcast
9:13 PM 48.2 °F 46.4 °F 93% 30.06 in 1.2 mi Calm Calm - N/A   Overcast
9:23 PM 48.2 °F 46.4 °F 93% 30.06 in 0.8 mi Calm Calm - N/A   Overcast
9:56 PM 48.9 °F 46.9 °F 93% 30.04 in 0.5 mi Calm Calm - N/A Fog Fog
10:56 PM 48.9 °F 46.9 °F 93% 30.03 in 0.2 mi Calm Calm - N/A Fog Fog
11:56 PM 48.0 °F 46.0 °F 93% 30.01 in 0.2 mi Calm Calm - 0.02 in Fog Fog